,,Stat6,,Stat2,,Stat8,,Stat9,,Stat10,,Wind1,,Wind1
time,status,PA1M_AVG,status,PR1M_SUM,status,RH1M_AVG,status,SR1M_AVG,status,TA1M_AVG,status,W1dAve1m,status,W1sAve1m
2009-03-02, 07:00:01,VALID,916.068,VALID,0,VALID,100,VALID,120.054,VALID,18.9399,VALID,159,VALID,0
2009-03-02, 07:01:00,VALID,916.086,VALID,0,VALID,100,VALID,143.165,VALID,19.0535,VALID,159,VALID,0
2009-03-02, 07:02:00,VALID,916.094,VALID,0,VALID,100,VALID,164.663,VALID,19.1505,VALID,151,VALID,0
2009-03-02, 07:03:00,VALID,916.117,VALID,0,VALID,100,VALID,169.723,VALID,19.2319,VALID,178,VALID,0
2009-03-02, 07:04:00,VALID,916.124,VALID,0,VALID,100,VALID,174.274,VALID,19.3324,VALID,170,VALID,0.0125762
2009-03-02, 07:05:00,VALID,916.142,VALID,0,VALID,100,VALID,173.867,VALID,19.4328,VALID,173,VALID,0.0613839
2009-03-02, 07:06:00,VALID,916.149,VALID,0,VALID,100,VALID,173.629,VALID,19.5241,VALID,168,VALID,0.00334821
2009-03-02, 07:07:00,VALID,916.164,VALID,0,VALID,100,VALID,176.974,VALID,19.6664,VALID,170,VALID,0
2009-03-02, 07:08:00,VALID,916.182,VALID,0,VALID,100,VALID,187.927,VALID,19.8064,VALID,183,VALID,0.0850497
2009-03-02, 07:09:00,VALID,916.199,VALID,0,VALID,100,VALID,191.9,VALID,19.9913,VALID,175,VALID,0
2009-03-02, 07:10:00,VALID,916.211,VALID,0,VALID,99.8141,VALID,198.387,VALID,20.03,VALID,167,VALID,0.376906
2009-03-02, 07:11:00,VALID,916.223,VALID,0,VALID,98.9639,VALID,203.889,VALID,20.04,VALID,165,VALID,0.34016
2009-03-02, 07:12:00,VALID,916.218,VALID,0,VALID,98.8596,VALID,209.713,VALID,20.0854,VALID,150,VALID,0.0907315
2009-03-02, 07:13:00,VALID,916.217,VALID,0,VALID,98.0992,VALID,215.572,VALID,20.1341,VALID,142,VALID,0.332131
2009-03-02, 07:14:00,VALID,916.22,VALID,0,VALID,97.7152,VALID,220.955,VALID,20.1344,VALID,159,VALID,0.167773
2009-03-02, 07:15:00,VALID,916.23,VALID,0,VALID,97.2549,VALID,224.605,VALID,20.1511,VALID,145,VALID,0.31715
2009-03-02, 07:16:00,VALID,916.235,VALID,0,VALID,97.4672,VALID,231.958,VALID,20.2152,VALID,133,VALID,0
2009-03-02, 07:17:00,VALID,916.246,VALID,0,VALID,97.1112,VALID,241.79,VALID,20.3388,VALID,154,VALID,0.466751
2009-03-02, 07:18:00,VALID,916.233,VALID,0,VALID,96.38,VALID,246.375,VALID,20.3256,VALID,150,VALID,0.2258
2009-03-02, 07:19:00,VALID,916.235,VALID,0,VALID,96.8123,VALID,251.792,VALID,20.4491,VALID,171,VALID,0.0310724
2009-03-02, 07:20:00,VALID,916.236,VALID,0,VALID,96.3851,VALID,260.18,VALID,20.6084,VALID,146,VALID,0.0183503
2009-03-02, 07:21:00,VALID,916.247,VALID,0,VALID,96.0265,VALID,267.024,VALID,20.6439,VALID,139,VALID,0.0512355
2009-03-02, 07:22:00,VALID,916.253,VALID,0,VALID,95.8815,VALID,273.289,VALID,20.7415,VALID,157,VALID,0.174665
2009-03-02, 07:23:00,VALID,916.274,VALID,0,VALID,95.687,VALID,278.265,VALID,20.8026,VALID,145,VALID,0.187309
2009-03-02, 07:24:00,VALID,916.275,VALID,0,VALID,95.3691,VALID,281.067,VALID,20.8224,VALID,136,VALID,0.151278
2009-03-02, 07:25:00,VALID,916.255,VALID,0,VALID,95.8879,VALID,290.457,VALID,20.9625,VALID,118,VALID,0.0864826
2009-03-02, 07:26:00,VALID,916.254,VALID,0,VALID,95.4339,VALID,299.1,VALID,21.0371,VALID,135,VALID,0.244141
2009-03-02, 07:27:00,VALID,916.265,VALID,0,VALID,94.7727,VALID,303.889,VALID,21.0931,VALID,126,VALID,0.22745
2009-03-02, 07:28:00,VALID,916.262,VALID,0,VALID,95.0639,VALID,308.576,VALID,21.1773,VALID,132,VALID,0.151414
2009-03-02, 07:29:00,VALID,916.262,VALID,0,VALID,94.1051,VALID,314.094,VALID,21.2646,VALID,137,VALID,0.445313
2009-03-02, 07:30:00,VALID,916.293,VALID,0,VALID,93.7541,VALID,319.24,VALID,21.3366,VALID,153,VALID,0.248365
2009-03-02, 07:31:00,VALID,916.312,VALID,0,VALID,93.5291,VALID,322.058,VALID,21.4137,VALID,171,VALID,0.142969
2009-03-02, 07:32:00,VALID,916.332,VALID,0,VALID,93.2048,VALID,322.347,VALID,21.5571,VALID,175,VALID,0.0736607
2009-03-02, 07:33:00,VALID,916.348,VALID,0,VALID,92.1468,VALID,324.3,VALID,21.6058,VALID,166,VALID,0.40734
2009-03-02, 07:34:00,VALID,916.365,VALID,0,VALID,92.2079,VALID,330.175,VALID,21.7097,VALID,175,VALID,0.109012
2009-03-02, 07:35:00,VALID,916.382,VALID,0,VALID,91.1982,VALID,339.99,VALID,21.7781,VALID,163,VALID,0.547637
2009-03-02, 07:36:00,VALID,916.387,VALID,0,VALID,90.5471,VALID,350.977,VALID,21.6648,VALID,167,VALID,0.835211
2009-03-02, 07:37:00,VALID,916.398,VALID,0,VALID,91.1346,VALID,358.72,VALID,21.6028,VALID,176,VALID,0.68941
2009-03-02, 07:38:00,VALID,916.413,VALID,0,VALID,90.9858,VALID,363.916,VALID,21.5606,VALID,165,VALID,0.871484
2009-03-02, 07:39:00,VALID,916.422,VALID,0,VALID,91.6636,VALID,367.567,VALID,21.5898,VALID,171,VALID,0.815972
2009-03-02, 07:40:00,VALID,916.421,VALID,0,VALID,91.6026,VALID,372.899,VALID,21.6483,VALID,174,VALID,0.600497
2009-03-02, 07:41:00,VALID,916.433,VALID,0,VALID,91.1206,VALID,377.195,VALID,21.655,VALID,166,VALID,1.11626
2009-03-02, 07:42:00,VALID,916.431,VALID,0,VALID,91.5326,VALID,375.056,VALID,21.6556,VALID,165,VALID,0.360828
2009-03-02, 07:43:00,VALID,916.446,VALID,0,VALID,91.7374,VALID,377.84,VALID,21.7622,VALID,158,VALID,0.484184
2009-03-02, 07:44:00,VALID,916.448,VALID,0,VALID,90.5955,VALID,376.193,VALID,21.8179,VALID,162,VALID,0.808499
2009-03-02, 07:45:00,VALID,916.446,VALID,0,VALID,89.8783,VALID,386.11,VALID,21.7416,VALID,153,VALID,0.68378
2009-03-02, 07:46:00,VALID,916.471,VALID,0,VALID,90.0995,VALID,399.083,VALID,21.7773,VALID,175,VALID,1.06421
2009-03-02, 07:47:00,VALID,916.462,VALID,0,VALID,89.8198,VALID,399.083,VALID,21.8853,VALID,160,VALID,0.807465
2009-03-02, 07:48:00,VALID,916.471,VALID,0,VALID,89.9838,VALID,412.634,VALID,22.0568,VALID,172,VALID,0.420945
2009-03-02, 07:49:00,VALID,916.462,VALID,0,VALID,89.095,VALID,417.745,VALID,22.2159,VALID,142,VALID,0.455433
2009-03-02, 07:50:00,VALID,916.454,VALID,0,VALID,89.3315,VALID,409.408,VALID,22.3198,VALID,144,VALID,0.188281
2009-03-02, 07:51:00,VALID,916.437,VALID,0,VALID,88.9297,VALID,383.903,VALID,22.4137,VALID,142,VALID,0.514186
2009-03-02, 07:52:00,VALID,916.438,VALID,0,VALID,89.5095,VALID,381.814,VALID,22.4919,VALID,136,VALID,0.0483631
2009-03-02, 07:53:00,VALID,916.451,VALID,0,VALID,89.4319,VALID,413.381,VALID,22.6153,VALID,114,VALID,0.174538
2009-03-02, 07:54:00,VALID,916.46,VALID,0,VALID,89.2959,VALID,420.989,VALID,22.9141,VALID,97,VALID,0.00223214
2009-03-02, 07:55:00,VALID,916.476,VALID,0,VALID,86.6026,VALID,430.515,VALID,23.0222,VALID,117,VALID,0.506288
2009-03-02, 07:56:00,VALID,916.468,VALID,0,VALID,86.5543,VALID,436.611,VALID,23.0848,VALID,119,VALID,0.31875
2009-03-02, 07:57:00,VALID,916.465,VALID,0,VALID,85.2471,VALID,415.487,VALID,23.267,VALID,96,VALID,0.287946
2009-03-02, 07:58:00,VALID,916.461,VALID,0,VALID,84.4053,VALID,430.107,VALID,23.3615,VALID,108,VALID,1.17006
2009-03-02, 07:59:00,VALID,916.468,VALID,0,VALID,84.1459,VALID,461.03,VALID,23.2478,VALID,93,VALID,0.385231
2009-03-02, 08:00:00,VALID,916.478,VALID,0,VALID,85.3018,VALID,453.201,VALID,23.28,VALID,97,VALID,0.708854
2009-03-02, 08:01:00,VALID,916.499,VALID,0,VALID,85.2077,VALID,293.242,VALID,23.319,VALID,57,VALID,0.31436
2009-03-02, 08:02:00,VALID,916.535,VALID,0,VALID,84.7016,VALID,237.392,VALID,23.4719,VALID,177,VALID,0.216332
2009-03-02, 08:03:00,VALID,916.568,VALID,0,VALID,83.6449,VALID,276.193,VALID,23.4232,VALID,181,VALID,0.140443
2009-03-02, 08:04:00,VALID,916.564,VALID,0,VALID,84.6444,VALID,391.731,VALID,23.3588,VALID,159,VALID,0.0196181
2009-03-02, 08:05:00,VALID,916.565,VALID,0,VALID,84.0543,VALID,365.02,VALID,23.2708,VALID,179,VALID,0.732422
2009-03-02, 08:06:00,VALID,916.566,VALID,0,VALID,84.4345,VALID,337.715,VALID,23.2315,VALID,159,VALID,0.633681
2009-03-02, 08:07:00,VALID,916.578,VALID,0,VALID,84.2362,VALID,286.059,VALID,23.2044,VALID,174,VALID,0.684766
2009-03-02, 08:08:00,VALID,916.578,VALID,0,VALID,84.5986,VALID,255.663,VALID,23.0098,VALID,174,VALID,0.176599
2009-03-02, 08:09:00,VALID,916.611,VALID,0,VALID,86.2339,VALID,252.488,VALID,22.9513,VALID,154,VALID,0.309783
2009-03-02, 08:10:00,VALID,916.626,VALID,0,VALID,85.6133,VALID,272.067,VALID,22.8896,VALID,141,VALID,0
2009-03-02, 08:11:00,VALID,916.654,VALID,0,VALID,85.9439,VALID,347.733,VALID,22.8081,VALID,166,VALID,0.00109012
2009-03-02, 08:12:00,VALID,916.707,VALID,0,VALID,86.2046,VALID,450.96,VALID,22.8799,VALID,191,VALID,0
2009-03-02, 08:13:00,VALID,916.724,VALID,0,VALID,85.3882,VALID,472.678,VALID,23.1037,VALID,186,VALID,0
2009-03-02, 08:14:00,VALID,916.754,VALID,0,VALID,84.8542,VALID,418.679,VALID,23.2862,VALID,163,VALID,0
2009-03-02, 08:15:00,VALID,916.769,VALID,0,VALID,83.889,VALID,387.706,VALID,23.2569,VALID,138,VALID,0
2009-03-02, 08:16:00,VALID,916.777,VALID,0,VALID,84.2413,VALID,392.987,VALID,23.1622,VALID,152,VALID,0.413881
2009-03-02, 08:17:00,VALID,916.79,VALID,0,VALID,84.6444,VALID,481.491,VALID,23.1592,VALID,160,VALID,0.486192
2009-03-02, 08:18:00,VALID,916.807,VALID,0,VALID,83.6283,VALID,471.065,VALID,23.3278,VALID,179,VALID,0.121761
2009-03-02, 08:19:00,VALID,916.824,VALID,0,VALID,82.5526,VALID,476.346,VALID,23.5331,VALID,169,VALID,0
2009-03-02, 08:20:00,VALID,916.827,VALID,0,VALID,82.0503,VALID,483.597,VALID,23.5526,VALID,170,VALID,0.423118
2009-03-02, 08:21:00,VALID,916.826,VALID,0,VALID,82.4674,VALID,483.835,VALID,23.5954,VALID,148,VALID,0
2009-03-02, 08:22:00,VALID,916.825,VALID,0,VALID,82.7967,VALID,460.911,VALID,23.6075,VALID,129,VALID,0.0119913
2009-03-02, 08:23:00,VALID,916.835,VALID,0,VALID,82.7993,VALID,460.113,VALID,23.7962,VALID,176,VALID,0.0805556
2009-03-02, 08:24:00,VALID,916.826,VALID,0,VALID,81.6078,VALID,397.233,VALID,23.959,VALID,170,VALID,0
2009-03-02, 08:25:00,VALID,916.843,VALID,0,VALID,80.5879,VALID,310.325,VALID,24.2086,VALID,166,VALID,0
2009-03-02, 08:26:00,VALID,916.851,VALID,0,VALID,78.9221,VALID,320.089,VALID,24.2612,VALID,122,VALID,0
2009-03-02, 08:27:00,VALID,916.872,VALID,0,VALID,79.0544,VALID,420.955,VALID,24.2157,VALID,121,VALID,0
2009-03-02, 08:28:00,VALID,916.881,VALID,0,VALID,79.0887,VALID,514.502,VALID,24.4565,VALID,121,VALID,0
2009-03-02, 08:29:00,VALID,916.893,VALID,0,VALID,78.7746,VALID,530.94,VALID,24.8231,VALID,122,VALID,0
2009-03-02, 08:30:00,VALID,916.915,VALID,0,VALID,77.4674,VALID,527.255,VALID,25.2329,VALID,129,VALID,0.154345
2009-03-02, 08:31:00,VALID,916.942,VALID,0,VALID,76.4311,VALID,536.306,VALID,25.399,VALID,126,VALID,0.0191761
2009-03-02, 08:32:00,VALID,916.952,VALID,0,VALID,75.6706,VALID,553.219,VALID,25.5775,VALID,134,VALID,0.0330078
2009-03-02, 08:33:00,VALID,916.982,VALID,0,VALID,75.6007,VALID,566.582,VALID,25.8476,VALID,145,VALID,0.073331
2009-03-02, 08:34:00,VALID,916.988,VALID,0,VALID,74.9217,VALID,571.711,VALID,26.0755,VALID,266,VALID,0.323552
2009-03-02, 08:35:00,VALID,916.979,VALID,0,VALID,75.6783,VALID,581.729,VALID,25.8609,VALID,260,VALID,0.567708
2009-03-02, 08:36:00,VALID,916.965,VALID,0,VALID,77.6785,VALID,584.107,VALID,25.5323,VALID,278,VALID,0
2009-03-02, 08:37:00,VALID,916.965,VALID,0,VALID,77.8921,VALID,477.246,VALID,25.2992,VALID,260,VALID,0
2009-03-02, 08:38:00,VALID,916.957,VALID,0,VALID,78.8586,VALID,421.057,VALID,25.2238,VALID,258,VALID,0
2009-03-02, 08:39:00,VALID,916.957,VALID,0,VALID,78.2253,VALID,428.257,VALID,25.2371,VALID,256,VALID,0
2009-03-02, 08:40:00,VALID,916.957,VALID,0,VALID,79.0035,VALID,558.771,VALID,25.0752,VALID,262,VALID,0
2009-03-02, 08:41:00,VALID,916.945,VALID,0,VALID,79.6889,VALID,407.506,VALID,24.9943,VALID,240,VALID,0.1163
2009-03-02, 08:42:00,VALID,916.943,VALID,0,VALID,79.0048,VALID,373.103,VALID,24.9715,VALID,246,VALID,0.353051
2009-03-02, 08:43:00,VALID,916.925,VALID,0,VALID,77.9138,VALID,435.405,VALID,24.8773,VALID,216,VALID,0.0492932
2009-03-02, 08:44:00,VALID,916.911,VALID,0,VALID,78.1007,VALID,437.528,VALID,24.8253,VALID,220,VALID,0.215216
2009-03-02, 08:45:00,VALID,916.893,VALID,0,VALID,78.0714,VALID,391.833,VALID,24.8324,VALID,251,VALID,0
2009-03-02, 08:46:00,VALID,916.862,VALID,0,VALID,77.0681,VALID,429.768,VALID,24.731,VALID,242,VALID,0.00109012
2009-03-02, 08:47:00,VALID,916.86,VALID,0,VALID,76.9003,VALID,519.868,VALID,24.692,VALID,215,VALID,0
2009-03-02, 08:48:00,VALID,916.859,VALID,0,VALID,76.8227,VALID,471.167,VALID,24.8672,VALID,223,VALID,0.160714
2009-03-02, 08:49:00,VALID,916.856,VALID,0,VALID,76.632,VALID,543.081,VALID,24.9816,VALID,220,VALID,0.466211
2009-03-02, 08:50:00,VALID,916.871,VALID,0,VALID,75.321,VALID,425.862,VALID,25.083,VALID,259,VALID,0.00237772
2009-03-02, 08:51:00,VALID,916.867,VALID,0,VALID,75.7622,VALID,387.282,VALID,25.043,VALID,220,VALID,0.00315824
2009-03-02, 08:52:00,VALID,916.868,VALID,0,VALID,76.0051,VALID,363.118,VALID,25.0889,VALID,247,VALID,0
2009-03-02, 08:53:00,VALID,916.869,VALID,0,VALID,75.7762,VALID,518.051,VALID,25.1506,VALID,275,VALID,0
2009-03-02, 08:54:00,VALID,916.887,VALID,0,VALID,75.1328,VALID,522.466,VALID,25.1763,VALID,255,VALID,0.135356
2009-03-02, 08:55:00,VALID,916.888,VALID,0,VALID,74.5732,VALID,610.868,VALID,25.1864,VALID,244,VALID,0.040968
2009-03-02, 08:56:00,VALID,916.897,VALID,0,VALID,73.6386,VALID,633.674,VALID,25.2676,VALID,236,VALID,0
2009-03-02, 08:57:00,VALID,916.891,VALID,0,VALID,74.6432,VALID,603.703,VALID,25.3268,VALID,269,VALID,0
2009-03-02, 08:58:00,VALID,916.906,VALID,0,VALID,75.822,VALID,626.015,VALID,25.3271,VALID,288,VALID,0.0486111
2009-03-02, 08:59:00,VALID,916.908,VALID,0,VALID,75.3273,VALID,605.621,VALID,25.3304,VALID,321,VALID,0
2009-03-02, 09:00:00,VALID,916.928,VALID,0,VALID,76.0025,VALID,573.188,VALID,25.4373,VALID,307,VALID,0
2009-03-02, 09:01:00,VALID,916.964,VALID,0,VALID,74.3075,VALID,598.914,VALID,25.5573,VALID,282,VALID,0
2009-03-02, 09:02:00,VALID,916.976,VALID,0,VALID,73.8891,VALID,585.856,VALID,25.5277,VALID,293,VALID,0
2009-03-02, 09:03:00,VALID,916.983,VALID,0,VALID,74.0354,VALID,628.036,VALID,25.6324,VALID,214,VALID,0
2009-03-02, 09:04:00,VALID,916.973,VALID,0,VALID,72.395,VALID,620.836,VALID,25.8184,VALID,194,VALID,0.0614347
2009-03-02, 09:05:00,VALID,916.982,VALID,0,VALID,71.2645,VALID,610.885,VALID,25.8213,VALID,168,VALID,0.0693824
2009-03-02, 09:06:00,VALID,916.98,VALID,0,VALID,71.4756,VALID,612.94,VALID,25.925,VALID,163,VALID,0
2009-03-02, 09:07:00,VALID,916.99,VALID,0,VALID,72.1445,VALID,605.299,VALID,26.1555,VALID,176,VALID,0
2009-03-02, 09:08:00,VALID,917,VALID,0,VALID,71.0814,VALID,591.901,VALID,26.4908,VALID,182,VALID,0
2009-03-02, 09:09:00,VALID,916.99,VALID,0,VALID,70.1646,VALID,604.28,VALID,26.631,VALID,152,VALID,0.0546875
2009-03-02, 09:10:00,VALID,917.003,VALID,0,VALID,69.4144,VALID,593.684,VALID,26.5493,VALID,159,VALID,0.253646
2009-03-02, 09:11:00,VALID,917.011,VALID,0,VALID,69.9853,VALID,599.831,VALID,26.323,VALID,177,VALID,0
2009-03-02, 09:12:00,VALID,917,VALID,0,VALID,69.778,VALID,613.704,VALID,26.2834,VALID,140,VALID,0
2009-03-02, 09:13:00,VALID,916.982,VALID,0,VALID,70.9454,VALID,624.945,VALID,26.0304,VALID,98,VALID,0
2009-03-02, 09:14:00,VALID,916.94,VALID,0,VALID,71.5824,VALID,654.917,VALID,26.0925,VALID,59,VALID,0.0448765
2009-03-02, 09:15:00,VALID,916.922,VALID,0,VALID,71.0598,VALID,567.771,VALID,26.1966,VALID,48,VALID,0.0182927
2009-03-02, 09:16:00,VALID,916.906,VALID,0,VALID,71.5189,VALID,204.619,VALID,26.1767,VALID,37,VALID,0
2009-03-02, 09:17:00,VALID,916.893,VALID,0,VALID,71.0153,VALID,160.146,VALID,26.1377,VALID,78,VALID,0.110899
2009-03-02, 09:18:00,VALID,916.88,VALID,0,VALID,72.0733,VALID,178.689,VALID,25.4776,VALID,87,VALID,0.157965
2009-03-02, 09:19:00,VALID,916.899,VALID,0,VALID,74.8899,VALID,553.32,VALID,25.0703,VALID,55,VALID,0.0117188
2009-03-02, 09:20:00,VALID,916.915,VALID,0,VALID,75.3235,VALID,639.566,VALID,25.1496,VALID,27,VALID,0.0120739
2009-03-02, 09:21:00,VALID,916.93,VALID,0,VALID,75.2027,VALID,634.709,VALID,25.4454,VALID,37,VALID,0.213542
2009-03-02, 09:22:00,VALID,916.933,VALID,0,VALID,72.6404,VALID,629.428,VALID,25.6698,VALID,53,VALID,0.093006
2009-03-02, 09:23:00,VALID,916.931,VALID,0,VALID,72.0771,VALID,440.449,VALID,25.6912,VALID,56,VALID,0.185724
2009-03-02, 09:24:00,VALID,916.902,VALID,0,VALID,71.3866,VALID,492.631,VALID,25.648,VALID,56,VALID,0.00228659
2009-03-02, 09:25:00,VALID,916.896,VALID,0,VALID,72.0644,VALID,332.756,VALID,25.5313,VALID,50,VALID,0.239169
2009-03-02, 09:26:00,VALID,916.88,VALID,0,VALID,73.7264,VALID,198.625,VALID,25.5872,VALID,46,VALID,0.49721
2009-03-02, 09:27:00,VALID,916.875,VALID,0,VALID,73.5191,VALID,502.887,VALID,25.6717,VALID,36,VALID,0.695503
2009-03-02, 09:28:00,VALID,916.867,VALID,0,VALID,72.9227,VALID,671.099,VALID,25.8213,VALID,44,VALID,0.00241815
2009-03-02, 09:29:00,VALID,916.89,VALID,0,VALID,72.9138,VALID,686.178,VALID,26.0554,VALID,33,VALID,0.351162
2009-03-02, 09:30:00,VALID,916.892,VALID,0,VALID,71.1323,VALID,515.538,VALID,26.283,VALID,11,VALID,0.199574
2009-03-02, 09:31:00,VALID,916.916,VALID,0,VALID,71.056,VALID,547.36,VALID,26.2664,VALID,18,VALID,0.0591264
2009-03-02, 09:32:00,VALID,916.922,VALID,0,VALID,71.866,VALID,461.641,VALID,26.4167,VALID,349,VALID,0.256359
2009-03-02, 09:33:00,VALID,916.929,VALID,0,VALID,70.8284,VALID,522.11,VALID,26.5432,VALID,246,VALID,0.0712891
2009-03-02, 09:34:00,VALID,916.944,VALID,0,VALID,69.2935,VALID,551.741,VALID,26.5507,VALID,225,VALID,0.00941051
2009-03-02, 09:35:00,VALID,916.941,VALID,0,VALID,69.5975,VALID,518.476,VALID,26.5829,VALID,226,VALID,0.000177557
2009-03-02, 09:36:00,VALID,916.942,VALID,0,VALID,68.9121,VALID,594.991,VALID,26.6928,VALID,213,VALID,0.7125
2009-03-02, 09:37:00,VALID,916.944,VALID,0,VALID,68.214,VALID,453.66,VALID,26.6401,VALID,183,VALID,0.780506
2009-03-02, 09:38:00,VALID,916.934,VALID,0,VALID,68.8994,VALID,694.074,VALID,26.5396,VALID,175,VALID,0.0677734
2009-03-02, 09:39:00,VALID,916.921,VALID,0,VALID,69.1956,VALID,722.772,VALID,26.5439,VALID,177,VALID,0.511541
2009-03-02, 09:40:00,VALID,916.899,VALID,0,VALID,71.9436,VALID,700.748,VALID,26.4102,VALID,178,VALID,0.830669
2009-03-02, 09:41:00,VALID,916.899,VALID,0,VALID,72.0898,VALID,599.084,VALID,26.4879,VALID,258,VALID,1.15334
2009-03-02, 09:42:00,VALID,916.887,VALID,0,VALID,71.7325,VALID,536.204,VALID,26.549,VALID,265,VALID,0.0965545
2009-03-02, 09:43:00,VALID,916.89,VALID,0,VALID,71.3802,VALID,445.883,VALID,26.4918,VALID,286,VALID,0.000868056
2009-03-02, 09:44:00,VALID,916.893,VALID,0,VALID,71.1018,VALID,434.047,VALID,26.2964,VALID,265,VALID,0.717416
2009-03-02, 09:45:00,VALID,916.91,VALID,0,VALID,72.5476,VALID,461.148,VALID,25.9123,VALID,261,VALID,0.0686384
2009-03-02, 09:46:00,VALID,916.924,VALID,0,VALID,73.5331,VALID,442.554,VALID,25.6418,VALID,262,VALID,1.17986
2009-03-02, 09:47:00,VALID,916.924,VALID,0,VALID,74.4881,VALID,434.539,VALID,25.4315,VALID,258,VALID,1.25547
2009-03-02, 09:48:00,VALID,916.936,VALID,0,VALID,75.5422,VALID,401.257,VALID,25.3567,VALID,287,VALID,0.360973
2009-03-02, 09:49:00,VALID,916.94,VALID,0,VALID,74.9674,VALID,366.073,VALID,25.3921,VALID,258,VALID,0.639382
2009-03-02, 09:50:00,VALID,916.916,VALID,0,VALID,74.1752,VALID,337.358,VALID,25.3765,VALID,268,VALID,0.770833
2009-03-02, 09:51:00,VALID,916.905,VALID,0,VALID,74.7284,VALID,354.084,VALID,25.3115,VALID,271,VALID,0.344922
2009-03-02, 09:52:00,VALID,916.891,VALID,0,VALID,75.3438,VALID,357.463,VALID,25.3534,VALID,275,VALID,0.00106534
2009-03-02, 09:53:00,VALID,916.859,VALID,0,VALID,72.8019,VALID,375.327,VALID,25.4607,VALID,244,VALID,0.455729
2009-03-02, 09:54:00,VALID,916.845,VALID,0,VALID,71.1832,VALID,526.032,VALID,25.4994,VALID,248,VALID,0.337612
2009-03-02, 09:55:00,VALID,916.825,VALID,0,VALID,71.3866,VALID,610.189,VALID,25.6496,VALID,248,VALID,0
2009-03-02, 09:56:00,VALID,916.818,VALID,0,VALID,71.3307,VALID,500.782,VALID,25.9423,VALID,359,VALID,0
2009-03-02, 09:57:00,VALID,916.81,VALID,0,VALID,70.6516,VALID,494.329,VALID,26.167,VALID,348,VALID,0.177326
2009-03-02, 09:58:00,VALID,916.813,VALID,0,VALID,71.3993,VALID,476.55,VALID,26.4138,VALID,267,VALID,0.459666
2009-03-02, 09:59:00,VALID,916.802,VALID,0,VALID,70.3477,VALID,576.143,VALID,26.6281,VALID,317,VALID,0.526278
2009-03-02, 10:00:00,VALID,916.799,VALID,0,VALID,69.2287,VALID,639.277,VALID,26.7845,VALID,341,VALID,0.174543
2009-03-02, 10:01:00,VALID,916.776,VALID,0,VALID,69.5364,VALID,627.815,VALID,27.0256,VALID,307,VALID,0.275391
2009-03-02, 10:02:00,VALID,916.757,VALID,0,VALID,69.3253,VALID,554.288,VALID,27.1231,VALID,281,VALID,0.736793
2009-03-02, 10:03:00,VALID,916.746,VALID,0,VALID,69.6979,VALID,556.547,VALID,27.0762,VALID,280,VALID,0.65904
2009-03-02, 10:04:00,VALID,916.734,VALID,0,VALID,69.9179,VALID,662.286,VALID,26.9591,VALID,349,VALID,0.67351
2009-03-02, 10:05:00,VALID,916.737,VALID,0,VALID,70.7063,VALID,728.664,VALID,26.924,VALID,344,VALID,0.72894
2009-03-02, 10:06:00,VALID,916.733,VALID,0,VALID,70.5359,VALID,744.151,VALID,27.0672,VALID,19,VALID,0.936198
2009-03-02, 10:07:00,VALID,916.734,VALID,0,VALID,69.1829,VALID,739.532,VALID,27.262,VALID,16,VALID,0.521802
2009-03-02, 10:08:00,VALID,916.714,VALID,0,VALID,68.0461,VALID,742.113,VALID,27.477,VALID,344,VALID,0.739099
2009-03-02, 10:09:00,VALID,916.702,VALID,0,VALID,66.8508,VALID,745.662,VALID,27.6339,VALID,11,VALID,0.998666
2009-03-02, 10:10:00,VALID,916.69,VALID,0,VALID,65.8132,VALID,748.226,VALID,27.7054,VALID,350,VALID,1.0214
2009-03-02, 10:11:00,VALID,916.673,VALID,0,VALID,63.6603,VALID,744.864,VALID,27.6534,VALID,352,VALID,0.717348
2009-03-02, 10:12:00,VALID,916.657,VALID,0,VALID,63.0118,VALID,750.553,VALID,27.5554,VALID,17,VALID,0.683685
2009-03-02, 10:13:00,VALID,916.638,VALID,0,VALID,63.1326,VALID,756.954,VALID,27.4025,VALID,22,VALID,0.565104
2009-03-02, 10:14:00,VALID,916.605,VALID,0,VALID,63.3984,VALID,750.926,VALID,27.4126,VALID,338,VALID,0.637767
2009-03-02, 10:15:00,VALID,916.589,VALID,0,VALID,64.5123,VALID,747.785,VALID,27.3928,VALID,353,VALID,0.638477
2009-03-02, 10:16:00,VALID,916.576,VALID,0,VALID,63.804,VALID,735.576,VALID,27.4517,VALID,17,VALID,0.508929
2009-03-02, 10:17:00,VALID,916.554,VALID,0,VALID,63.8409,VALID,742.894,VALID,27.4491,VALID,31,VALID,0.0943359
2009-03-02, 10:18:00,VALID,916.561,VALID,0,VALID,63.5319,VALID,757.566,VALID,27.4647,VALID,44,VALID,0.0340909
2009-03-02, 10:19:00,VALID,916.561,VALID,0,VALID,63.4314,VALID,766.888,VALID,27.644,VALID,360,VALID,0.78995
2009-03-02, 10:20:00,VALID,916.567,VALID,0,VALID,63.8956,VALID,660.452,VALID,27.8034,VALID,315,VALID,0.832639
2009-03-02, 10:21:00,VALID,916.594,VALID,0,VALID,63.3208,VALID,779.437,VALID,27.8587,VALID,297,VALID,0.48601
2009-03-02, 10:22:00,VALID,916.621,VALID,0,VALID,63.1466,VALID,795.603,VALID,27.9202,VALID,312,VALID,0.363839
2009-03-02, 10:23:00,VALID,916.616,VALID,0,VALID,62.3709,VALID,800.663,VALID,28.0246,VALID,293,VALID,0.60103
2009-03-02, 10:24:00,VALID,916.623,VALID,0,VALID,63.5764,VALID,794.703,VALID,27.9888,VALID,311,VALID,0.590843
2009-03-02, 10:25:00,VALID,916.625,VALID,0,VALID,62.7766,VALID,791.307,VALID,27.8627,VALID,5,VALID,1.1431
2009-03-02, 10:26:00,VALID,916.628,VALID,0,VALID,61.2913,VALID,804.399,VALID,27.7481,VALID,5,VALID,1.39323
2009-03-02, 10:27:00,VALID,916.626,VALID,0,VALID,60.5462,VALID,796.078,VALID,27.7097,VALID,3,VALID,0.684048
2009-03-02, 10:28:00,VALID,916.603,VALID,0,VALID,61.8801,VALID,776.482,VALID,27.8926,VALID,14,VALID,0.927591
2009-03-02, 10:29:00,VALID,916.603,VALID,0,VALID,61.3422,VALID,784.107,VALID,28.0322,VALID,10,VALID,1.4146
2009-03-02, 10:30:00,VALID,916.596,VALID,0,VALID,60.5093,VALID,781.763,VALID,28.1233,VALID,18,VALID,0.479992
2009-03-02, 10:31:00,VALID,916.565,VALID,0,VALID,61.594,VALID,787.826,VALID,28.2625,VALID,11,VALID,1.52253
2009-03-02, 10:32:00,VALID,916.543,VALID,0,VALID,61.1146,VALID,772.645,VALID,28.2039,VALID,354,VALID,1.54688
2009-03-02, 10:33:00,VALID,916.542,VALID,0,VALID,61.3727,VALID,794.227,VALID,28.0488,VALID,327,VALID,1.81864
2009-03-02, 10:34:00,VALID,916.556,VALID,0,VALID,63.3284,VALID,772.271,VALID,27.7137,VALID,13,VALID,2.04948
2009-03-02, 10:35:00,VALID,916.557,VALID,0,VALID,63.537,VALID,765.207,VALID,27.5572,VALID,17,VALID,1.11577
2009-03-02, 10:36:00,VALID,916.551,VALID,0,VALID,62.8007,VALID,774.241,VALID,27.5799,VALID,2,VALID,0.432706
2009-03-02, 10:37:00,VALID,916.556,VALID,0,VALID,63.0258,VALID,776.618,VALID,27.7025,VALID,85,VALID,0.156436